{"data":{"norad_id":63371,"epoch":"2026-09-20T22:01:05.199456Z","epoch_age_seconds":122742,"freshness":"FRESH","line1":"1 63371U 25063J   26263.91742129  .00012681  00000+0  41962-3 0  9992","line2":"2 63371  53.1558 224.6636 0001502  94.8829 265.2344 15.31707282 84662","mean_motion":15.31707282,"eccentricity":0.0001502,"inclination_deg":53.1558,"raan_deg":224.6636,"arg_perigee_deg":94.8829,"mean_anomaly_deg":265.2344,"bstar":0.00041962,"rev_number":8466,"period_min":94.012741006215,"perigee_km":469.68958998431,"apogee_km":471.74698611284,"semimajor_km":6848.8552880486,"source":"CELESTRAK","updated_at":"2026-09-21T09:00:34.973720Z"}}